ID Time Temp Humidity Light PM2.5 PM10 Voltage Extra Firmware Position Fcnt TTN version Gateways Distance RSSI LSNR Radiosettings
2026-05-07 17:26:08 16°C 67% 3.35V v4 52.0874 / 5.08142 3363 ttn.v3 1.528km -124 -8.5 868.1MHz, SF9BW125, 4/5CR
2026-05-07 17:10:00 16.0625°C 67.5625% 3.35V v4 52.0874 / 5.08142 3362 ttn.v3 2.346km -119 -12.25 868.5MHz, SF9BW125, 4/5CR
2026-05-07 16:54:00 16.125°C 67.0625% 3.35V v4 52.0874 / 5.08142 3361 ttn.v3 2.346km -123 -8.5 867.3MHz, SF9BW125, 4/5CR
1.528km -124 -11.8 867.3MHz, SF9BW125, 4/5CR
2026-05-07 16:22:00 15.75°C 66.375% 3.35V v4 52.0874 / 5.08142 3359 ttn.v3 2.346km -119 -2.75 867.1MHz, SF9BW125, 4/5CR
2026-05-07 16:06:00 16.25°C 65.5% 3.35V v4 52.0874 / 5.08142 3358 ttn.v3 1.528km -124 -10.5 868.1MHz, SF9BW125, 4/5CR
- -125 -14 868.1MHz, SF9BW125, 4/5CR
2026-05-07 15:50:00 16.4375°C 66.125% 3.35V v4 52.0874 / 5.08142 3357 ttn.v3 2.346km -123 -7 867.9MHz, SF9BW125, 4/5CR
1.528km -125 -14 867.9MHz, SF9BW125, 4/5CR
2026-05-07 15:18:00 15.875°C 69.5625% 3.35V v4 52.0874 / 5.08142 3355 ttn.v3 1.528km -124 -6.5 867.7MHz, SF9BW125, 4/5CR
2026-05-07 14:30:01 15.5625°C 70.5% 3.35V v4 52.0874 / 5.08142 3352 ttn.v3 2.346km -126 -10.25 868.1MHz, SF9BW125, 4/5CR
1.528km -124 -10.5 868.1MHz, SF9BW125, 4/5CR
2026-05-07 14:14:01 15.375°C 71.4375% 3.35V v4 52.0874 / 5.08142 3351 ttn.v3 2.346km -120 -10 868.5MHz, SF9BW125, 4/5CR
2026-05-07 13:42:02 16.5°C 69.1875% 3.35V v4 52.0874 / 5.08142 3349 ttn.v3 2.346km -123 -7.5 868.1MHz, SF9BW125, 4/5CR
1.528km -123 -13.8 868.1MHz, SF9BW125, 4/5CR
2026-05-07 13:10:02 16.125°C 8.375% 3.35V v4 52.0874 / 5.08142 3347 ttn.v3 2.346km -116 -7.25 868.5MHz, SF9BW125, 4/5CR
2026-05-07 12:38:41 16.4375°C 16.375% 3.35V v4 52.0874 / 5.08142 3345 ttn.v3 2.346km -124 -10 867.7MHz, SF12BW125, 4/5CR
4.964km -102 -12.25 867.7MHz, SF12BW125, 4/5CR
1.528km -124 -22.8 867.7MHz, SF12BW125, 4/5CR
2026-05-07 12:22:05 15.9375°C 16.375% 3.35V v4 52.0873 / 5.08133 3344 ttn.v3 1.523km -124 -8.5 868.1MHz, SF9BW125, 4/5CR
2.334km -129 -13.75 868.1MHz, SF9BW125, 4/5CR
2026-05-07 11:34:05 15.5625°C 3.6875% 3.35V v4 52.0873 / 5.08133 3341 ttn.v3 1.523km -124 -12.5 867.3MHz, SF9BW125, 4/5CR
2026-05-07 11:02:06 15°C 0.625% 3.35V v4 52.0873 / 5.08133 3339 ttn.v3 2.334km -118 -1.75 867.1MHz, SF9BW125, 4/5CR
1.523km -124 -9 867.1MHz, SF9BW125, 4/5CR
2026-05-07 10:46:07 14.625°C -3.875% 3.35V v4 52.0873 / 5.08133 3338 ttn.v3 1.523km -124 -8.5 868.1MHz, SF9BW125, 4/5CR
2026-05-07 10:30:15 14.5°C -3.375% 3.35V v4 52.0873 / 5.08133 3337 ttn.v3 1.523km -124 -4.8 867.9MHz, SF9BW125, 4/5CR
2.334km -125 -9.5 867.9MHz, SF9BW125, 4/5CR
2026-05-07 10:14:08 14.1875°C -3.4375% 3.35V v4 52.0873 / 5.08133 3336 ttn.v3 2.334km -127 -12.5 867.7MHz, SF9BW125, 4/5CR
1.523km -123 -14 867.7MHz, SF9BW125, 4/5CR
2026-05-07 09:26:11 12.8125°C 102.812% 3.36V v4 52.0873 / 5.08133 3333 ttn.v3 2.334km -120 -10.5 868.5MHz, SF9BW125, 4/5CR
2026-05-07 09:10:12 12.375°C 101% 3.35V v4 52.0873 / 5.08133 3332 ttn.v3 2.334km -123 -9.25 867.3MHz, SF9BW125, 4/5CR
2026-05-07 08:22:15 10.875°C 91.4375% 3.36V v4 52.0873 / 5.08133 3329 ttn.v3 1.523km -124 -8.2 868.1MHz, SF9BW125, 4/5CR
2026-05-07 08:06:17 10.1875°C 89.125% 3.36V v4 52.0873 / 5.08133 3328 ttn.v3 1.523km -124 -7.5 867.9MHz, SF9BW125, 4/5CR
4.972km -110 -8.5 867.9MHz, SF9BW125, 4/5CR
2026-05-07 07:34:20 8.6875°C 112.312% 3.36V v4 52.0873 / 5.08133 3326 ttn.v3 2.334km -124 -8 867.7MHz, SF9BW125, 4/5CR
1.523km -124 -8 867.7MHz, SF9BW125, 4/5CR
2026-05-07 06:14:30 7.625°C 88.8125% 3.36V v4 52.0873 / 5.08133 3321 ttn.v3 2.334km -120 -3.75 867.1MHz, SF9BW125, 4/5CR
2026-05-07 05:58:32 7.25°C 87.3125% 3.36V v4 52.0873 / 5.08133 3320 ttn.v3 1.523km -124 -11 868.1MHz, SF9BW125, 4/5CR
2.334km -126 -13.75 868.1MHz, SF9BW125, 4/5CR
2026-05-07 05:42:34 7.125°C 88.125% 3.36V v4 52.0873 / 5.08133 3319 ttn.v3 1.523km -124 -5 867.9MHz, SF9BW125, 4/5CR
2026-05-07 05:26:36 7.0625°C 89.125% 3.36V v4 52.0873 / 5.08133 3318 ttn.v3 2.334km -118 -9 868.5MHz, SF9BW125, 4/5CR
2026-05-07 05:10:38 6.875°C 91.75% 3.36V v4 52.0873 / 5.08133 3317 ttn.v3 1.523km -124 -7 867.7MHz, SF9BW125, 4/5CR
2026-05-07 04:38:43 6.9375°C 101.812% 3.36V v4 52.0873 / 5.08133 3315 ttn.v3 1.523km -123 -14.5 867.5MHz, SF9BW125, 4/5CR
2026-05-07 04:22:45 7.1875°C 109.25% 3.36V v4 52.0873 / 5.08133 3314 ttn.v3 1.523km -124 -9.8 868.1MHz, SF9BW125, 4/5CR
2026-05-07 04:06:47 7.375°C 118.5% 3.36V v4 52.0873 / 5.08133 3313 ttn.v3 2.334km -123 -7.5 867.3MHz, SF9BW125, 4/5CR
2026-05-07 03:50:49 7.625°C 9.875% 3.36V v4 52.0873 / 5.08133 3312 ttn.v3 2.334km -118 -10.5 868.5MHz, SF9BW125, 4/5CR
2026-05-07 03:34:59 7.8125°C 34.625% 3.36V v4 52.0873 / 5.08133 3311 ttn.v3 2.334km -118 -1.5 867.1MHz, SF9BW125, 4/5CR
2026-05-07 03:18:53 8°C 97.9375% 3.36V v4 52.0873 / 5.08133 3310 ttn.v3 1.523km -124 -4.2 867.9MHz, SF9BW125, 4/5CR
2.334km -126 -9.5 867.9MHz, SF9BW125, 4/5CR
- -125 -11.5 867.9MHz, SF9BW125, 4/5CR
2026-05-07 02:46:57 8.5°C 1.375% 3.36V v4 52.0873 / 5.08133 3308 ttn.v3 1.523km -124 -8.2 867.7MHz, SF9BW125, 4/5CR
2.334km -124 -8.25 867.7MHz, SF9BW125, 4/5CR
2026-05-07 01:59:02 8.9375°C 70.1875% 3.36V v4 52.0873 / 5.08133 3305 ttn.v3 1.523km -124 -9 868.1MHz, SF9BW125, 4/5CR
2.334km -126 -10.25 868.1MHz, SF9BW125, 4/5CR
2026-05-07 01:43:04 9.25°C 98.875% 3.36V v4 52.0873 / 5.08133 3304 ttn.v3 2.334km -120 -4.75 867.3MHz, SF9BW125, 4/5CR
2026-05-07 01:27:06 9.75°C 106.625% 3.36V v4 52.0873 / 5.08133 3303 ttn.v3 2.334km -117 -6.5 868.5MHz, SF9BW125, 4/5CR
2026-05-07 01:11:07 10.125°C 112.062% 3.36V v4 52.0873 / 5.08133 3302 ttn.v3 2.334km -119 -2.5 867.1MHz, SF9BW125, 4/5CR
2026-05-07 00:39:10 10.5625°C 0.6875% 3.36V v4 52.0873 / 5.08133 3300 ttn.v3 1.523km -124 -9 867.9MHz, SF9BW125, 4/5CR
2026-05-07 00:23:11 10.75°C 0.125% 3.36V v4 52.0873 / 5.08133 3299 ttn.v3 2.334km -121 -6.75 868.1MHz, SF9BW125, 4/5CR
1.523km -124 -8.8 868.1MHz, SF9BW125, 4/5CR
2026-05-07 00:07:21 10.8125°C -5.1875% 3.36V v4 52.0873 / 5.08133 3298 ttn.v3 2.334km -124 -7.75 867.7MHz, SF9BW125, 4/5CR
- -122 -7.75 867.7MHz, SF9BW125, 4/5CR
1.523km -124 -8.2 867.7MHz, SF9BW125, 4/5CR
2026-05-06 23:51:14 10.9375°C 117.5% 3.36V v4 52.0873 / 5.08133 3297 ttn.v3 1.523km -121 -14.5 867.5MHz, SF9BW125, 4/5CR
2026-05-06 23:35:15 11.0625°C 113.125% 3.36V v4 52.0873 / 5.08133 3296 ttn.v3 1.523km -124 -10 868.1MHz, SF9BW125, 4/5CR
2026-05-06 23:19:17 11.1875°C 106.125% 3.36V v4 52.0873 / 5.08133 3295 ttn.v3 2.334km -118 -2 867.3MHz, SF9BW125, 4/5CR
1.523km -124 -14.2 867.3MHz, SF9BW125, 4/5CR
2026-05-06 23:03:18 11.375°C 101.062% 3.36V v4 52.0873 / 5.08133 3294 ttn.v3 2.334km -117 -9.5 868.5MHz, SF9BW125, 4/5CR
2026-05-06 22:15:21 11.8125°C 112.938% 3.36V v4 52.0873 / 5.08133 3291 ttn.v3 1.523km -124 -6.5 867.9MHz, SF9BW125, 4/5CR
2026-05-06 21:43:23 12.1875°C 110.25% 3.35V v4 52.0873 / 5.08133 3289 ttn.v3 2.334km -123 -6.75 867.7MHz, SF9BW125, 4/5CR
1.523km -124 -13 867.7MHz, SF9BW125, 4/5CR
2026-05-06 21:11:25 12.375°C 77.6875% 3.35V v4 52.0873 / 5.08133 3287 ttn.v3 1.523km -120 -15.5 867.5MHz, SF9BW125, 4/5CR
2026-05-06 20:39:35 12.4375°C 78% 3.35V v4 52.0873 / 5.08133 3285 ttn.v3 2.334km -124 -7.5 867.3MHz, SF9BW125, 4/5CR
2026-05-06 20:23:28 12.5°C 76.6875% 3.35V v4 52.0873 / 5.08133 3284 ttn.v3 2.334km -119 -7.5 867.1MHz, SF9BW125, 4/5CR
2026-05-06 19:51:30 12.875°C 76.25% 3.36V v4 52.0873 / 5.08133 3282 ttn.v3 1.523km -124 -10.5 867.9MHz, SF9BW125, 4/5CR
2026-05-06 19:35:31 13°C 74.75% 3.35V v4 52.0873 / 5.08133 3281 ttn.v3 2.334km -124 -8 868.1MHz, SF9BW125, 4/5CR
1.523km -124 -11.2 868.1MHz, SF9BW125, 4/5CR
2026-05-06 19:19:31 13.25°C 73.0625% 3.35V v4 52.0873 / 5.08133 3280 ttn.v3 2.334km -119 -3.5 867.7MHz, SF9BW125, 4/5CR
2026-05-06 18:15:34 13.75°C 69.4375% 3.35V v4 52.0873 / 5.08133 3276 ttn.v3 1.523km -124 -12.8 867.3MHz, SF9BW125, 4/5CR
2026-05-06 17:43:35 13.625°C 69% 3.35V v4 52.0873 / 5.08133 3274 ttn.v3 2.334km -117 -1.25 867.1MHz, SF9BW125, 4/5CR
2026-05-06 17:27:36 13.875°C 71.6875% 3.35V v4 52.0873 / 5.08133 3273 ttn.v3 2.334km -119 -14 868.5MHz, SF9BW125, 4/5CR
2026-05-06 17:11:44 13.8125°C 71.875% 3.35V v4 52.0873 / 5.08133 3272 ttn.v3 1.523km -124 -7 867.9MHz, SF9BW125, 4/5CR
2026-05-06 16:55:37 13.4375°C 70.25% 3.35V v4 52.0873 / 5.08133 3271 ttn.v3 - -121 -9.25 867.7MHz, SF9BW125, 4/5CR
1.523km -124 -13 867.7MHz, SF9BW125, 4/5CR
2026-05-06 16:39:38 13.0625°C 72.25% 3.35V v4 52.0873 / 5.08133 3270 ttn.v3 2.334km -119 -10 868.5MHz, SF9BW125, 4/5CR
2026-05-06 15:51:40 13.375°C 71.25% 3.35V v4 52.0873 / 5.08133 3267 ttn.v3 2.334km -123 -10.25 867.3MHz, SF9BW125, 4/5CR
2026-05-06 15:35:41 13.1875°C 70.375% 3.35V v4 52.0873 / 5.08133 3266 ttn.v3 2.334km -128 -13.25 868.1MHz, SF9BW125, 4/5CR
2026-05-06 15:19:41 13.75°C 70.875% 3.35V v4 52.0873 / 5.08133 3265 ttn.v3 2.334km -120 -3.75 867.1MHz, SF9BW125, 4/5CR
2026-05-06 15:03:42 13.75°C 67.75% 3.35V v4 52.0873 / 5.08133 3264 ttn.v3 2.334km -119 -11.5 868.5MHz, SF9BW125, 4/5CR
2026-05-06 14:47:43 14.25°C 65.125% 3.35V v4 52.0873 / 5.08133 3263 ttn.v3 1.523km -124 -7.8 867.9MHz, SF9BW125, 4/5CR
2026-05-06 14:15:44 14.25°C 63.8125% 3.35V v4 52.0873 / 5.08133 3261 ttn.v3 - -123 -9.75 867.7MHz, SF9BW125, 4/5CR
2026-05-06 13:59:44 13.875°C 67.5% 3.35V v4 52.0873 / 5.08133 3260 ttn.v3 2.334km -123 -8.75 868.1MHz, SF9BW125, 4/5CR
4.972km -103 -10.25 868.1MHz, SF9BW125, 4/5CR
1.523km -124 -12.8 868.1MHz, SF9BW125, 4/5CR
- -123 -13.25 868.1MHz, SF9BW125, 4/5CR
2026-05-06 13:27:46 13.75°C 2.5% 3.35V v4 52.0873 / 5.08133 3258 ttn.v3 1.523km -124 -13.2 867.3MHz, SF9BW125, 4/5CR
2026-05-06 13:11:47 13.75°C 9.5% 3.35V v4 52.0873 / 5.08133 3257 ttn.v3 2.334km -127 -13.25 868.1MHz, SF9BW125, 4/5CR
2026-05-06 12:55:47 13.5625°C 104.312% 3.35V v4 52.0873 / 5.08133 3256 ttn.v3 1.523km -124 -14.8 867.1MHz, SF9BW125, 4/5CR
2026-05-06 12:39:48 12.6875°C 94.1875% 3.35V v4 52.0873 / 5.08133 3255 ttn.v3 2.334km -119 -13 868.5MHz, SF9BW125, 4/5CR
2026-05-06 12:23:49 12.875°C 96.375% 3.35V v4 52.0873 / 5.08133 3254 ttn.v3 2.334km -126 -10.5 867.9MHz, SF9BW125, 4/5CR
1.523km -125 -11 867.9MHz, SF9BW125, 4/5CR
- -124 -11 867.9MHz, SF9BW125, 4/5CR
2026-05-06 11:51:50 14.125°C 12.125% 3.35V v4 52.0873 / 5.08133 3252 ttn.v3 2.334km -121 -5.25 867.7MHz, SF9BW125, 4/5CR
1.523km -124 -14.8 867.7MHz, SF9BW125, 4/5CR
2026-05-06 11:35:51 14.8125°C 4.6875% 3.35V v4 52.0873 / 5.08133 3251 ttn.v3 1.523km -124 -7.8 868.1MHz, SF9BW125, 4/5CR
2026-05-06 11:19:51 13.625°C -3.125% 3.35V v4 52.0873 / 5.08133 3250 ttn.v3 1.523km -123 -10.8 867.5MHz, SF9BW125, 4/5CR
2026-05-06 11:04:41 13.625°C 116.875% 3.35V v4 52.0873 / 5.08133 3249 ttn.v3 2.334km -119 -12 868.5MHz, SF12BW125, 4/5CR
- -105 -20.5 868.5MHz, SF12BW125, 4/5CR
2026-05-06 10:47:55 13.9375°C -4% 3.35V v4 52.0873 / 5.08163 3248 ttn.v3 1.51km -124 -10.2 867.3MHz, SF9BW125, 4/5CR
2026-05-06 10:16:05 12.875°C 100% 3.35V v4 52.0873 / 5.08163 3246 ttn.v3 2.337km -118 -3.25 867.1MHz, SF9BW125, 4/5CR
1.51km -124 -9.8 867.1MHz, SF9BW125, 4/5CR
2026-05-06 09:59:58 12.5625°C 107.125% 3.36V v4 52.0873 / 5.08163 3245 ttn.v3 2.337km -125 -9.5 867.9MHz, SF9BW125, 4/5CR
1.51km -125 -11.2 867.9MHz, SF9BW125, 4/5CR
2026-05-06 09:28:00 12.75°C 104% 3.36V v4 52.0873 / 5.08163 3243 ttn.v3 1.51km -124 -11.2 867.7MHz, SF9BW125, 4/5CR
2026-05-06 09:12:01 12.375°C 93.9375% 3.36V v4 52.0873 / 5.08163 3242 ttn.v3 2.337km -124 -9.25 868.1MHz, SF9BW125, 4/5CR
1.51km -124 -11.8 868.1MHz, SF9BW125, 4/5CR
2026-05-06 08:40:03 11.625°C 16.9375% 3.36V v4 52.0873 / 5.08163 3240 ttn.v3 2.337km -123 -14.5 868.5MHz, SF9BW125, 4/5CR
2026-05-06 08:24:05 11.4375°C -1.8125% 3.36V v4 52.0873 / 5.08163 3239 ttn.v3 2.337km -121 -5.25 867.3MHz, SF9BW125, 4/5CR
1.51km -123 -14.5 867.3MHz, SF9BW125, 4/5CR
2026-05-06 07:52:07 11°C 97% 3.36V v4 52.0873 / 5.08163 3237 ttn.v3 1.51km -125 -13.5 867.1MHz, SF9BW125, 4/5CR
2026-05-06 07:36:09 10.8125°C 95.5625% 3.36V v4 52.0873 / 5.08163 3236 ttn.v3 1.51km -124 -7.2 868.1MHz, SF9BW125, 4/5CR
2.337km -122 -9.5 868.1MHz, SF9BW125, 4/5CR
2026-05-06 07:20:10 10.5°C 97.4375% 3.36V v4 52.0873 / 5.08163 3235 ttn.v3 1.51km -124 -8.2 867.9MHz, SF9BW125, 4/5CR
2026-05-06 07:04:11 10.375°C 98.625% 3.36V v4 52.0873 / 5.08163 3234 ttn.v3 2.337km -118 -12.75 868.5MHz, SF9BW125, 4/5CR
2026-05-06 06:48:21 10.25°C 100.75% 3.36V v4 52.0873 / 5.08163 3233 ttn.v3 1.51km -124 -9.8 867.7MHz, SF9BW125, 4/5CR
2.337km -130 -14.5 867.7MHz, SF9BW125, 4/5CR
2026-05-06 06:00:18 9.9375°C 117.375% 3.36V v4 52.0873 / 5.08163 3230 ttn.v3 2.337km -123 -7.75 867.3MHz, SF9BW125, 4/5CR
2026-05-06 05:28:21 9.8125°C -4.875% 3.36V v4 52.0873 / 5.08163 3228 ttn.v3 2.337km -117 -7.75 867.1MHz, SF9BW125, 4/5CR
1.51km -125 -12 867.1MHz, SF9BW125, 4/5CR
2026-05-06 05:12:23 9.6875°C 117.688% 3.36V v4 52.0873 / 5.08163 3227 ttn.v3 2.337km -125 -11 868.1MHz, SF9BW125, 4/5CR
2026-05-06 04:56:24 9.625°C 118.938% 3.36V v4 52.0873 / 5.08163 3226 ttn.v3 1.51km -124 -6.5 867.9MHz, SF9BW125, 4/5CR
2026-05-06 04:40:26 9.6875°C 2.5625% 3.36V v4 52.0873 / 5.08163 3225 ttn.v3 2.337km -118 -10.25 868.5MHz, SF9BW125, 4/5CR
2026-05-06 04:24:27 9.6875°C 1.875% 3.36V v4 52.0873 / 5.08163 3224 ttn.v3 2.337km -120 -5.25 867.7MHz, SF9BW125, 4/5CR
1.51km -125 -11.2 867.7MHz, SF9BW125, 4/5CR
2026-05-06 03:52:31 10.125°C 37.4375% 3.36V v4 52.0873 / 5.08163 3222 ttn.v3 1.51km -123 -15 867.5MHz, SF9BW125, 4/5CR
2026-05-06 03:36:32 10.1875°C 65.9375% 3.36V v4 52.0873 / 5.08163 3221 ttn.v3 2.337km -123 -9 868.1MHz, SF9BW125, 4/5CR
1.51km -124 -13 868.1MHz, SF9BW125, 4/5CR
2026-05-06 03:04:35 10.3125°C 31.9375% 3.36V v4 52.0873 / 5.08163 3219 ttn.v3 2.337km -118 -1.25 867.1MHz, SF9BW125, 4/5CR
2026-05-06 02:48:37 10.25°C 26.375% 3.36V v4 52.0873 / 5.08163 3218 ttn.v3 2.337km -127 -12.75 868.1MHz, SF9BW125, 4/5CR
2026-05-06 02:32:38 10.1875°C 31.625% 3.36V v4 52.0873 / 5.08163 3217 ttn.v3 1.51km -124 -10 867.9MHz, SF9BW125, 4/5CR
- -121 -11.25 867.9MHz, SF9BW125, 4/5CR
2026-05-06 02:16:40 10.125°C 28.625% 3.36V v4 52.0873 / 5.08163 3216 ttn.v3 2.337km -121 -13 868.5MHz, SF9BW125, 4/5CR
2026-05-06 02:00:41 10.0625°C 16.3125% 3.36V v4 52.0873 / 5.08163 3215 ttn.v3 1.51km -124 -12.8 867.7MHz, SF9BW125, 4/5CR
- -123 -13.25 867.7MHz, SF9BW125, 4/5CR
2026-05-06 01:12:46 9.875°C 10.6875% 3.36V v4 52.0873 / 5.08163 3212 ttn.v3 1.51km -124 -8.2 868.1MHz, SF9BW125, 4/5CR
2026-05-06 00:56:47 9.875°C 16.5% 3.36V v4 52.0873 / 5.08163 3211 ttn.v3 1.51km -124 -10.5 867.3MHz, SF9BW125, 4/5CR
2026-05-06 00:24:51 9.75°C 37.375% 3.36V v4 52.0873 / 5.08163 3209 ttn.v3 2.337km -118 -1.5 867.1MHz, SF9BW125, 4/5CR
1.51km -124 -4.8 867.1MHz, SF9BW125, 4/5CR
2026-05-06 00:08:52 9.75°C 60% 3.36V v4 52.0873 / 5.08163 3208 ttn.v3 2.337km -121 -14.75 868.3MHz, SF9BW125, 4/5CR
2026-05-05 23:53:02 9.6875°C 88.9375% 3.36V v4 52.0873 / 5.08163 3207 ttn.v3 1.51km -125 -13.8 867.9MHz, SF9BW125, 4/5CR
2026-05-05 23:36:56 9.75°C 89.4375% 3.36V v4 52.0873 / 5.08163 3206 ttn.v3 2.337km -123 -7.25 867.7MHz, SF9BW125, 4/5CR
1.51km -124 -8.5 867.7MHz, SF9BW125, 4/5CR
2026-05-05 22:49:00 10.5625°C 92.3125% 3.36V v4 52.0873 / 5.08163 3203 ttn.v3 2.337km -118 -3 868.1MHz, SF9BW125, 4/5CR
1.51km -124 -13 868.1MHz, SF9BW125, 4/5CR
2026-05-05 22:17:03 11.1875°C 91.375% 3.36V v4 52.0873 / 5.08163 3201 ttn.v3 2.337km -116 -9.25 868.5MHz, SF9BW125, 4/5CR
- -119 -14.5 868.5MHz, SF9BW125, 4/5CR
2026-05-05 22:01:04 11.25°C 90% 3.36V v4 52.0873 / 5.08163 3200 ttn.v3 2.337km -118 -1.5 867.1MHz, SF9BW125, 4/5CR
1.51km -125 -13.5 867.1MHz, SF9BW125, 4/5CR
2026-05-05 21:29:07 11.3125°C 89.1875% 3.36V v4 52.0873 / 5.08163 3198 ttn.v3 2.337km -124 -7.25 867.9MHz, SF9BW125, 4/5CR
1.51km -124 -8 867.9MHz, SF9BW125, 4/5CR
2026-05-05 21:13:08 11.4375°C 90.5% 3.36V v4 52.0873 / 5.08163 3197 ttn.v3 1.51km -124 -7.8 868.1MHz, SF9BW125, 4/5CR
2.337km -122 -8.5 868.1MHz, SF9BW125, 4/5CR
2026-05-05 20:57:09 11.5°C 90.4375% 3.36V v4 52.0873 / 5.08163 3196 ttn.v3 2.337km -123 -9 867.7MHz, SF9BW125, 4/5CR
1.51km -124 -11.5 867.7MHz, SF9BW125, 4/5CR
2026-05-05 20:09:13 12.375°C 92.75% 3.35V v4 52.0873 / 5.08163 3193 ttn.v3 2.337km -121 -12.25 867.3MHz, SF9BW125, 4/5CR
1.51km -124 -14.8 867.3MHz, SF9BW125, 4/5CR
2026-05-05 19:37:14 13.0625°C 95.9375% 3.35V v4 52.0873 / 5.08163 3191 ttn.v3 2.337km -118 -1 867.1MHz, SF9BW125, 4/5CR
1.51km -125 -10.8 867.1MHz, SF9BW125, 4/5CR
2026-05-05 19:05:16 13.625°C 100.312% 3.35V v4 52.0873 / 5.08163 3189 ttn.v3 1.51km -124 -9.5 867.9MHz, SF9BW125, 4/5CR
2026-05-05 18:49:16 13.75°C 100.625% 3.35V v4 52.0873 / 5.08163 3188 ttn.v3 2.337km -121 -5.25 868.1MHz, SF9BW125, 4/5CR
- -122 -9.75 868.1MHz, SF9BW125, 4/5CR
1.51km -124 -10.5 868.1MHz, SF9BW125, 4/5CR
2026-05-05 18:33:17 14.3125°C 103.875% 3.35V v4 52.0873 / 5.08163 3187 ttn.v3 2.337km -118 -7 867.7MHz, SF9BW125, 4/5CR
2026-05-05 18:17:17 14.5625°C 110.25% 3.35V v4 52.0873 / 5.08163 3186 ttn.v3 2.337km -119 -11 868.5MHz, SF9BW125, 4/5CR
2026-05-05 17:29:19 15.625°C 112.438% 3.35V v4 52.0873 / 5.08163 3183 ttn.v3 2.337km -125 -9.5 867.3MHz, SF9BW125, 4/5CR
2026-05-05 16:57:26 14.75°C 107.938% 3.35V v4 52.0873 / 5.08163 3181 ttn.v3 2.337km -119 -3 867.1MHz, SF9BW125, 4/5CR
2026-05-05 16:41:20 15°C 109.062% 3.35V v4 52.0873 / 5.08163 3180 ttn.v3 1.51km -124 -7.5 867.9MHz, SF9BW125, 4/5CR
4.952km -110 -10.5 867.9MHz, SF9BW125, 4/5CR
2026-05-05 16:25:20 15.4375°C 112.062% 3.35V v4 52.0873 / 5.08163 3179 ttn.v3 1.51km -124 -9.8 868.1MHz, SF9BW125, 4/5CR
2026-05-05 16:09:20 15.75°C 112.75% 3.35V v4 52.0873 / 5.08163 3178 ttn.v3 2.337km -120 -4 867.7MHz, SF9BW125, 4/5CR
1.51km -124 -13 867.7MHz, SF9BW125, 4/5CR
2026-05-05 15:53:20 15.75°C 109.438% 3.35V v4 52.0873 / 5.08163 3177 ttn.v3 2.337km -121 -12.25 868.5MHz, SF9BW125, 4/5CR
2026-05-05 15:05:21 15.625°C 116.75% 3.35V v4 52.0873 / 5.08163 3174 ttn.v3 2.337km -127 -11.75 867.3MHz, SF9BW125, 4/5CR
2026-05-05 14:49:21 15°C 105.375% 3.35V v4 52.0873 / 5.08163 3173 ttn.v3 2.337km -123 -8.5 868.1MHz, SF9BW125, 4/5CR
1.51km -124 -10.2 868.1MHz, SF9BW125, 4/5CR
2026-05-05 14:01:23 13.8125°C 94.625% 3.35V v4 52.0873 / 5.08163 3170 ttn.v3 2.337km -121 -4.75 867.9MHz, SF9BW125, 4/5CR
1.51km -124 -9.5 867.9MHz, SF9BW125, 4/5CR
2026-05-05 13:29:31 12.625°C 64% 3.35V v4 52.0873 / 5.08163 3168 ttn.v3 2.337km -124 -9.75 868.1MHz, SF9BW125, 4/5CR
2026-05-05 13:13:26 12.375°C 40.5% 3.36V v4 52.0873 / 5.08163 3167 ttn.v3 2.337km -122 -13.25 868.5MHz, SF9BW125, 4/5CR
2026-05-05 12:57:27 11.875°C 12% 3.36V v4 52.0873 / 5.08163 3166 ttn.v3 1.51km -123 -13.8 867.3MHz, SF9BW125, 4/5CR
2026-05-05 12:25:29 11.8125°C -3.25% 3.36V v4 52.0873 / 5.08163 3164 ttn.v3 2.337km -119 -3.5 867.1MHz, SF9BW125, 4/5CR
2026-05-05 12:09:31 11.25°C 106.375% 3.36V v4 52.0873 / 5.08163 3163 ttn.v3 4.952km -110 -10 868.1MHz, SF9BW125, 4/5CR
2.337km -127 -12.25 868.1MHz, SF9BW125, 4/5CR
1.51km -124 -15 868.1MHz, SF9BW125, 4/5CR
2026-05-05 11:53:32 11.125°C 108.125% 3.36V v4 52.0873 / 5.08163 3162 ttn.v3 1.51km -125 -11.5 867.9MHz, SF9BW125, 4/5CR
2026-05-05 11:21:35 10.9375°C 106.25% 3.36V v4 52.0873 / 5.08163 3160 ttn.v3 2.337km -121 -7 867.7MHz, SF9BW125, 4/5CR
2026-05-05 10:33:39 10.5625°C 94.25% 3.36V v4 52.0873 / 5.08163 3157 ttn.v3 2.337km -122 -7.25 868.1MHz, SF9BW125, 4/5CR
2026-05-05 10:17:40 10.5625°C 95.5% 3.36V v4 52.0873 / 5.08163 3156 ttn.v3 2.337km -121 -7.5 867.3MHz, SF9BW125, 4/5CR
1.51km -124 -11.2 867.3MHz, SF9BW125, 4/5CR
2026-05-05 09:30:29 10°C 67.8125% 3.35V v4 52.0873 / 5.08163 3153 ttn.v3 2.337km -117 -2 867.1MHz, SF12BW125, 4/5CR
2026-05-05 08:57:50 9.6875°C 64.4375% 3.36V v4 52.0874 / 5.08142 3151 ttn.v3 - -123 -9.5 867.9MHz, SF9BW125, 4/5CR
1.528km -125 -10 867.9MHz, SF9BW125, 4/5CR
2026-05-05 08:41:52 9.625°C 60.375% 3.36V v4 52.0874 / 5.08142 3150 ttn.v3 - -122 -15.25 868.5MHz, SF9BW125, 4/5CR
2026-05-05 08:25:53 9.375°C 59.0625% 3.36V v4 52.0874 / 5.08142 3149 ttn.v3 1.528km -124 -12.5 867.7MHz, SF9BW125, 4/5CR
2026-05-05 07:22:00 9.125°C 57% 3.36V v4 52.0874 / 5.08142 3145 ttn.v3 2.346km -122 -11.25 867.3MHz, SF9BW125, 4/5CR
2026-05-05 06:02:08 9.4375°C 56.25% 3.36V v4 52.0874 / 5.08142 3140 ttn.v3 4.964km -111 -8.25 868.1MHz, SF9BW125, 4/5CR
1.528km -124 -10.8 868.1MHz, SF9BW125, 4/5CR
2.346km -127 -12.75 868.1MHz, SF9BW125, 4/5CR
2026-05-05 05:30:12 9.875°C 54.5625% 3.36V v4 52.0874 / 5.08142 3138 ttn.v3 2.346km -122 -13.5 868.5MHz, SF9BW125, 4/5CR
2026-05-05 04:42:16 10.1875°C 55.5625% 3.36V v4 52.0874 / 5.08142 3135 ttn.v3 2.346km -122 -6.75 867.3MHz, SF9BW125, 4/5CR
2026-05-05 04:26:17 10.375°C 55.875% 3.36V v4 52.0874 / 5.08142 3134 ttn.v3 1.528km -124 -12 868.1MHz, SF9BW125, 4/5CR
2026-05-05 04:10:19 10.375°C 57.125% 3.36V v4 52.0874 / 5.08142 3133 ttn.v3 2.346km -122 -1.75 867.1MHz, SF9BW125, 4/5CR
2026-05-05 03:54:20 10.5°C 55.6875% 3.36V v4 52.0874 / 5.08142 3132 ttn.v3 2.346km -115 -3.75 868.5MHz, SF9BW125, 4/5CR
2026-05-05 03:38:22 10.5°C 56.3125% 3.36V v4 52.0874 / 5.08142 3131 ttn.v3 2.346km -129 -13.75 867.9MHz, SF9BW125, 4/5CR
2026-05-05 03:22:23 10.6875°C 56.6875% 3.36V v4 52.0874 / 5.08142 3130 ttn.v3 2.346km -119 -14.25 868.3MHz, SF9BW125, 4/5CR
2026-05-05 03:06:24 11°C 56.5% 3.36V v4 52.0874 / 5.08142 3129 ttn.v3 1.528km -124 -9.2 867.7MHz, SF9BW125, 4/5CR
2026-05-05 01:30:32 12°C 51.8125% 3.36V v4 52.0874 / 5.08142 3123 ttn.v3 2.346km -118 -11.75 868.5MHz, SF9BW125, 4/5CR
- -121 -14.25 868.5MHz, SF9BW125, 4/5CR
2026-05-05 01:14:33 12.0625°C 52.4375% 3.36V v4 52.0874 / 5.08142 3122 ttn.v3 1.528km -125 -11.8 867.9MHz, SF9BW125, 4/5CR
2026-05-05 00:42:35 12.3125°C 55.25% 3.36V v4 52.0874 / 5.08142 3120 ttn.v3 1.528km -125 -14.5 867.7MHz, SF9BW125, 4/5CR
2026-05-05 00:26:36 12.5°C 52.5% 3.35V v4 52.0874 / 5.08142 3119 ttn.v3 1.528km -121 -13 868.1MHz, SF9BW125, 4/5CR
2026-05-05 00:10:37 12.5625°C 47.5625% 3.36V v4 52.0874 / 5.08142 3118 ttn.v3 1.528km -123 -11.8 867.5MHz, SF9BW125, 4/5CR
2.346km -122 -14 867.5MHz, SF9BW125, 4/5CR
2026-05-04 23:54:38 12.8125°C 46.8125% 3.35V v4 52.0874 / 5.08142 3117 ttn.v3 - -120 -12.5 868.5MHz, SF9BW125, 4/5CR
2026-05-04 23:38:38 12.9375°C 45.1875% 3.35V v4 52.0874 / 5.08142 3116 ttn.v3 2.346km -121 -4.25 867.3MHz, SF9BW125, 4/5CR
1.528km -124 -11 867.3MHz, SF9BW125, 4/5CR
2026-05-04 23:06:40 13.0625°C 41.4375% 3.35V v4 52.0874 / 5.08142 3114 ttn.v3 1.528km -124 -11.2 867.1MHz, SF9BW125, 4/5CR
2026-05-04 22:50:41 13°C 42.625% 3.35V v4 52.0874 / 5.08142 3113 ttn.v3 1.528km -124 -10.5 868.1MHz, SF9BW125, 4/5CR
2.346km -127 -12.5 868.1MHz, SF9BW125, 4/5CR
2026-05-04 22:34:41 13.125°C 42.6875% 3.35V v4 52.0874 / 5.08142 3112 ttn.v3 2.346km -128 -10.75 867.9MHz, SF9BW125, 4/5CR
1.528km -124 -10.8 867.9MHz, SF9BW125, 4/5CR
2026-05-04 22:18:49 13.3125°C 43.875% 3.35V v4 52.0874 / 5.08142 3111 ttn.v3 2.346km -121 -12.25 868.5MHz, SF9BW125, 4/5CR
2026-05-04 22:02:43 13.5°C 43% 3.35V v4 52.0874 / 5.08142 3110 ttn.v3 2.346km -124 -7 867.7MHz, SF9BW125, 4/5CR
1.528km -124 -11.2 867.7MHz, SF9BW125, 4/5CR
2026-05-04 21:46:44 13.5°C 41.125% 3.35V v4 52.0874 / 5.08142 3109 ttn.v3 1.528km -124 -8.2 868.1MHz, SF9BW125, 4/5CR
2.346km -125 -9.75 868.1MHz, SF9BW125, 4/5CR
2026-05-04 21:30:45 13.6875°C 44.75% 3.35V v4 52.0874 / 5.08142 3108 ttn.v3 1.528km -122 -14.5 867.5MHz, SF9BW125, 4/5CR
2026-05-04 21:14:45 14.0625°C 51.1875% 3.35V v4 52.0874 / 5.08142 3107 ttn.v3 2.346km -119 -12.5 868.5MHz, SF9BW125, 4/5CR
2026-05-04 20:58:46 14.3125°C 52.6875% 3.35V v4 52.0874 / 5.08142 3106 ttn.v3 - -124 -11.75 867.3MHz, SF9BW125, 4/5CR
2026-05-04 20:10:47 14.8125°C 57.8125% 3.35V v4 52.0874 / 5.08142 3103 ttn.v3 1.528km -124 -12 868.1MHz, SF9BW125, 4/5CR
2.346km -127 -12.5 868.1MHz, SF9BW125, 4/5CR
2026-05-04 19:54:47 15.1875°C 61.5625% 3.35V v4 52.0874 / 5.08142 3102 ttn.v3 1.528km -124 -8.5 867.9MHz, SF9BW125, 4/5CR
2026-05-04 19:22:47 16°C 88% 3.35V v4 52.0874 / 5.08142 3100 ttn.v3 1.528km -124 -8.8 867.7MHz, SF9BW125, 4/5CR
2026-05-04 18:34:47 17.1875°C 102.188% 3.35V v4 52.0874 / 5.08142 3097 ttn.v3 2.346km -118 -6.25 867.3MHz, SF9BW125, 4/5CR
1.528km -124 -12.8 867.3MHz, SF9BW125, 4/5CR
2026-05-04 18:02:46 17.75°C 104.625% 3.35V v4 52.0874 / 5.08142 3095 ttn.v3 1.528km -122 -6 867.1MHz, SF9BW125, 4/5CR
2026-05-04 17:46:46 18.1875°C 1.75% 3.35V v4 52.0874 / 5.08142 3094 ttn.v3 2.346km -121 -9.75 868.1MHz, SF9BW125, 4/5CR
2026-05-04 17:30:45 18.6875°C 103.625% 3.35V v4 52.0874 / 5.08142 3093 ttn.v3 2.346km -124 -8.75 867.9MHz, SF9BW125, 4/5CR
1.528km -124 -9.2 867.9MHz, SF9BW125, 4/5CR
2026-05-04 17:14:44 19.9375°C 60.4375% 3.35V v4 52.0874 / 5.08142 3092 ttn.v3 2.346km -121 -11.75 868.5MHz, SF9BW125, 4/5CR
2026-05-04 16:58:43 20.75°C 104.625% 3.35V v4 52.0874 / 5.08142 3091 ttn.v3 1.528km -123 -5.2 867.7MHz, SF9BW125, 4/5CR
2.346km -118 -7.25 867.7MHz, SF9BW125, 4/5CR
2026-05-04 16:26:41 20.5°C 101.812% 3.35V v4 52.0874 / 5.08142 3089 ttn.v3 1.528km -121 -10 867.5MHz, SF9BW125, 4/5CR
2026-05-04 16:10:39 19.8125°C 93.0625% 3.35V v4 52.0874 / 5.08142 3088 ttn.v3 1.528km -120 -13.5 868.1MHz, SF9BW125, 4/5CR
2026-05-04 15:54:39 18.9375°C 67% 3.35V v4 52.0874 / 5.08142 3087 ttn.v3 2.346km -118 -4.25 867.3MHz, SF9BW125, 4/5CR
1.528km -124 -13.2 867.3MHz, SF9BW125, 4/5CR
2026-05-04 15:22:43 20.5625°C 99.6875% 3.35V v4 52.0874 / 5.08142 3085 ttn.v3 2.346km -119 -2.5 867.1MHz, SF9BW125, 4/5CR
1.528km -125 -9.8 867.1MHz, SF9BW125, 4/5CR
2026-05-04 15:06:36 20.125°C 101.812% 3.35V v4 52.0874 / 5.08142 3084 ttn.v3 1.528km -124 -12.2 867.9MHz, SF9BW125, 4/5CR
2026-05-04 14:50:34 21°C 101.812% 3.35V v4 52.0874 / 5.08142 3083 ttn.v3 2.346km -118 -8.5 868.5MHz, SF9BW125, 4/5CR
2026-05-04 14:34:33 21.5625°C 105.688% 3.35V v4 52.0874 / 5.08142 3082 ttn.v3 2.346km -118 -2 867.7MHz, SF9BW125, 4/5CR
1.528km -123 -6.2 867.7MHz, SF9BW125, 4/5CR
2026-05-04 14:02:30 20.125°C 92.4375% 3.35V v4 52.0874 / 5.08142 3080 ttn.v3 1.528km -122 -14.5 867.5MHz, SF9BW125, 4/5CR
2026-05-04 13:30:28 19.0625°C 66.9375% 3.35V v4 52.0874 / 5.08142 3078 ttn.v3 2.346km -121 -8.5 867.3MHz, SF9BW125, 4/5CR
1.528km -122 -10 867.3MHz, SF9BW125, 4/5CR
2026-05-04 13:14:28 19.5°C 90.5% 3.35V v4 52.0874 / 5.08142 3077 ttn.v3 2.346km -121 -12.5 868.5MHz, SF9BW125, 4/5CR
2026-05-04 12:58:27 19.5625°C 28.125% 3.35V v4 52.0874 / 5.08142 3076 ttn.v3 2.346km -118 -1.5 867.1MHz, SF9BW125, 4/5CR
2026-05-04 12:26:25 18.6875°C 105.062% 3.35V v4 52.0874 / 5.08142 3074 ttn.v3 1.528km -124 -11 867.9MHz, SF9BW125, 4/5CR
2026-05-04 12:10:25 17.4375°C 74.25% 3.35V v4 52.0874 / 5.08142 3073 ttn.v3 1.528km -124 -9.5 868.1MHz, SF9BW125, 4/5CR
2026-05-04 11:54:25 17.1875°C 66.1875% 3.35V v4 52.0874 / 5.08142 3072 ttn.v3 2.346km -120 -4.25 867.7MHz, SF9BW125, 4/5CR
1.528km -124 -7 867.7MHz, SF9BW125, 4/5CR
- -125 -12.25 867.7MHz, SF9BW125, 4/5CR
2026-05-04 11:38:24 16.5625°C 49.625% 3.35V v4 52.0874 / 5.08142 3071 ttn.v3 2.346km -121 -11.75 868.5MHz, SF9BW125, 4/5CR
2026-05-04 11:22:24 15.8125°C 36.4375% 3.35V v4 52.0874 / 5.08142 3070 ttn.v3 1.528km -121 -12.8 867.5MHz, SF9BW125, 4/5CR
2026-05-04 10:50:25 15.1875°C 25% 3.35V v4 52.0874 / 5.08142 3068 ttn.v3 1.528km -123 -9.2 867.3MHz, SF9BW125, 4/5CR
2.346km -123 -9.5 867.3MHz, SF9BW125, 4/5CR
2026-05-04 10:34:25 15.125°C 24.5% 3.35V v4 52.0874 / 5.08142 3067 ttn.v3 2.346km -120 -4.75 868.1MHz, SF9BW125, 4/5CR
1.528km -124 -10.2 868.1MHz, SF9BW125, 4/5CR
2026-05-04 10:18:25 14.875°C 22.75% 3.35V v4 52.0874 / 5.08142 3066 ttn.v3 2.346km -120 -8.75 867.1MHz, SF9BW125, 4/5CR
1.528km -124 -10.5 867.1MHz, SF9BW125, 4/5CR
2026-05-04 09:14:27 13.5625°C 0.8125% 3.35V v4 52.0874 / 5.08142 3062 ttn.v3 2.346km -126 -11.75 867.7MHz, SF9BW125, 4/5CR
2026-05-04 08:58:28 13.375°C 23.8125% 3.36V v4 52.0874 / 5.08142 3061 ttn.v3 2.346km -124 -9.25 868.1MHz, SF9BW125, 4/5CR
2026-05-04 08:26:30 13.25°C 89.125% 3.35V v4 52.0874 / 5.08142 3059 ttn.v3 2.346km -118 -7.75 868.5MHz, SF9BW125, 4/5CR
2026-05-04 08:10:30 13.25°C 91.625% 3.35V v4 52.0874 / 5.08142 3058 ttn.v3 2.346km -120 -4.25 867.3MHz, SF9BW125, 4/5CR
1.528km -124 -9.8 867.3MHz, SF9BW125, 4/5CR
2026-05-04 07:55:41 12.8125°C 93.5625% 3.35V v4 52.0874 / 5.08142 3057 ttn.v3 - -103 -18 868.3MHz, SF12BW125, 4/5CR

Message count: 200
Node count: 1

Messages per node

Number of messages in list aboveNodes
200

Statistics per gateway

GatewayNumber of messagesNumber of nodesNodes
1351 (2.346km)
1261 (1.528km)
171
61 (4.964km)
21

Filter by dataset